Location: Asheville, NC
(35.6000°N, 82.5500°W)
Time: 09:02:35
(UTC-04:00)

Vanguard 3 - Pass Details

Date: 14 December 2017
Orbit: 508 x 3264 km, 33.3° (Epoch: 26 April)

Event Time Altitude Azimuth Distance (km) Brightness Sun altitude
Rises 19:10:12 0° 256° (WSW) 3,090 11.7 -22.1°
Reaches altitude 10° 19:14:14 10° 221° (SW) 2,577 10.4 -22.9°
Maximum altitude 19:16:07 11° 203° (SSW) 2,682 10.2 -23.2°
Drops below altitude 10° 19:18:17 10° 185° (S) 3,039 10.3 -23.7°
Sets 19:24:37 0° 156° (SSE) 4,759 11.0 -24.9°
